1998-067RF

Last updated on Sat May 09 2020 01:02:08 GMT+0100 (British Summer Time)

1 45262U 98067RF 20129.22709969 .00004106 00000-0 77864-4 0 9994 2 45262 51.6412 185.5414 0006579 248.3576 111.6713 15.50746081 12279
UTC large
Height (km)
Speed (km/s)
/
Latitude / Longitude
Inclination (degrees)
Orbital Period (minutes)
Azimuth
Elevation
Range (km)
Doppler Factor

Next 0 passes for location: London (51.5072 / 0.1276)

Sorry there are no passes over London.